This is the latest recevied weather packets stored in our database for station/object WB5HZM-3. If no packets are shown the sender has not sent any weather packets the latest 10 day(s).
| Time | Temp. | Humidity | Pressure | Rain* | Wind** | Luminosity | Snow |
|---|---|---|---|---|---|---|---|
| 1777586011 | 19.44° C | 86% | 1010.8 hPa | 0.25 mm | - | - | - |
| 1777585410 | 19.44° C | 86% | 1010.5 hPa | 0.25 mm | - | - | - |
| 1777581803 | 20° C | 86% | 1013.1 hPa | 0.25 mm | - | - | - |
| 1777579408 | 19.44° C | 85% | 1013.1 hPa | 0.51 mm | - | - | - |
| 1777576413 | 19.44° C | 85% | 1013 hPa | 0 mm | - | - | - |
| 1777575808 | 19.44° C | 85% | 1013.3 hPa | 0 mm | - | - | - |
| 1777563213 | 20.56° C | 85% | 1012.8 hPa | 0 mm | - | - | - |
| 1777562008 | 20.56° C | 85% | 1012.9 hPa | 0 mm | - | - | - |
| 1777559596 | 20.56° C | 85% | 1012.8 hPa | 0 mm | - | - | - |
| 1777557200 | 20.56° C | 85% | 1012.3 hPa | 0 mm | - | - | - |
| 1777555997 | 20.56° C | 85% | 1012.2 hPa | 0 mm | - | - | - |
| 1777555412 | 20.56° C | 85% | 1012.2 hPa | 0 mm | - | - | - |
| 1777548203 | 20.56° C | 85% | 1011.7 hPa | 0 mm | - | - | - |
| 1777547012 | 20.56° C | 85% | 1011.8 hPa | 0 mm | - | - | - |
| 1777544597 | 20.56° C | 85% | 1011.7 hPa | 0 mm | - | - | - |
| 1777544011 | 20.56° C | 85% | 1011.6 hPa | 0 mm | - | - | - |
| 1777540412 | 20.56° C | 85% | 1011.2 hPa | 0 mm | - | - | - |
| 1777536810 | 21.11° C | 85% | 1011.9 hPa | 0.25 mm | - | - | - |
| 1777535605 | 21.11° C | 85% | 1012.1 hPa | 0.25 mm | - | - | - |
| 1777534397 | 21.11° C | 85% | 1011.9 hPa | 0.25 mm | - | - | - |
| 1777533793 | 21.67° C | 85% | 1011.7 hPa | 0 mm | - | - | - |
| 1777532605 | 21.67° C | 85% | 1012.3 hPa | 0 mm | - | - | - |
| 1777532005 | 21.67° C | 85% | 1012.6 hPa | 0 mm | - | - | - |
| 1777530794 | 21.67° C | 86% | 1012.2 hPa | 0 mm | - | - | - |
| 1777530193 | 21.67° C | 86% | 1012.3 hPa | 0 mm | - | - | - |
* Rain latest hour (hover to see other rain measurements)
** Current wind speed in m/s (hover to see current wind gust speed)